AFR129 LFMN-LFPG

Flight info

Callsign AFR129
Flight time 1h 10m
Altitude 34000
Route OKTET DCT GIPNO DCT LOGNI DCT MOKIP DCT ARFOZ DCT TINIL
Aircraft A339/H-SADE1E2E3GHIJ3J5M1P2RWXY/LB2D1

Departure

Time 2026-05-01 09:12
Airport Nice-Côte d'Azur Airport (LFMN)

Arrival

Time 2026-05-01 10:22
Airport Charles de Gaulle International Airport (LFPG)
Time Latitude Longitude Altitude Speed Heading
2026-05-01 08:45 43.65864 7.20626 27 ft 0 kts 317°
2026-05-01 08:47 43.65772 7.20503 28 ft 0 kts 330°
2026-05-01 09:03 43.65758 7.20513 27 ft 4 kts 330°
2026-05-01 09:03 43.65737 7.20528 25 ft 4 kts 323°
2026-05-01 09:03 43.65719 7.20548 26 ft 4 kts 285°
2026-05-01 09:04 43.65715 7.20573 25 ft 4 kts 237°
2026-05-01 09:04 43.65731 7.20601 26 ft 4 kts 221°
2026-05-01 09:04 43.65751 7.20625 26 ft 4 kts 222°
2026-05-01 09:04 43.65760 7.20635 26 ft 0 kts 225°
2026-05-01 09:06 43.65757 7.20632 25 ft 3 kts 225°
2026-05-01 09:06 43.65730 7.20594 26 ft 7 kts 225°
2026-05-01 09:06 43.65688 7.20536 27 ft 10 kts 225°
2026-05-01 09:07 43.65636 7.20463 28 ft 12 kts 225°
2026-05-01 09:07 43.65574 7.20377 28 ft 14 kts 225°
2026-05-01 09:07 43.65504 7.20279 28 ft 15 kts 225°
2026-05-01 09:07 43.65452 7.20209 28 ft 10 kts 224°
2026-05-01 09:08 43.65419 7.20179 28 ft 6 kts 205°
2026-05-01 09:08 43.65365 7.20185 28 ft 10 kts 165°
2026-05-01 09:08 43.65307 7.20247 28 ft 12 kts 133°
2026-05-01 09:08 43.65250 7.20334 28 ft 13 kts 134°
2026-05-01 09:09 43.65183 7.20424 28 ft 14 kts 137°
2026-05-01 09:09 43.65098 7.20472 28 ft 14 kts 183°
2026-05-01 09:09 43.65019 7.20397 28 ft 15 kts 223°
2026-05-01 09:09 43.64942 7.20288 28 ft 17 kts 226°
2026-05-01 09:10 43.64878 7.20195 28 ft 6 kts 225°
2026-05-01 09:10 43.64829 7.20144 28 ft 12 kts 209°
2026-05-01 09:10 43.64753 7.20168 28 ft 12 kts 141°
2026-05-01 09:10 43.64709 7.20236 28 ft 5 kts 124°
2026-05-01 09:11 43.64708 7.20281 28 ft 9 kts 77°
2026-05-01 09:11 43.64894 7.20552 28 ft 84 kts 43°
2026-05-01 09:11 43.65516 7.21407 40 ft 162 kts 45°
2026-05-01 09:11 43.66392 7.22512 596 ft 179 kts 45°
2026-05-01 09:12 43.66720 7.24013 1540 ft 164 kts 102°
2026-05-01 09:12 43.66121 7.25378 2276 ft 181 kts 135°
2026-05-01 09:12 43.65038 7.26557 2592 ft 212 kts 137°
2026-05-01 09:12 43.63961 7.27990 3385 ft 215 kts 131°
2026-05-01 09:13 43.62979 7.29508 4336 ft 213 kts 127°
2026-05-01 09:13 43.61945 7.30998 5165 ft 221 kts 140°
2026-05-01 09:13 43.60503 7.31792 5968 ft 231 kts 172°
2026-05-01 09:13 43.58883 7.31461 6722 ft 246 kts 201°
2026-05-01 09:14 43.57419 7.30213 7557 ft 246 kts 217°
2026-05-01 09:14 43.56087 7.28788 8403 ft 248 kts 220°
2026-05-01 09:14 43.55046 7.26893 9193 ft 247 kts 251°
2026-05-01 09:14 43.54803 7.24584 9989 ft 245 kts 281°
2026-05-01 09:15 43.55421 7.22445 10707 ft 241 kts 310°
2026-05-01 09:15 43.56498 7.20647 11369 ft 245 kts 314°
2026-05-01 09:15 43.57592 7.18854 11995 ft 250 kts 313°
2026-05-01 09:15 43.58704 7.16976 12632 ft 255 kts 311°
2026-05-01 09:16 43.59819 7.15034 13296 ft 259 kts 311°
2026-05-01 09:16 43.60950 7.13079 13903 ft 262 kts 314°
2026-05-01 09:16 43.62286 7.11369 14541 ft 264 kts 324°
2026-05-01 09:17 43.65336 7.07948 14932 ft 305 kts 323°
2026-05-01 09:17 43.67032 7.06021 15122 ft 325 kts 323°
2026-05-01 09:17 43.70698 7.01830 15458 ft 360 kts 323°
2026-05-01 09:18 43.72651 6.99585 15810 ft 367 kts 323°
2026-05-01 09:18 43.76612 6.95038 16977 ft 372 kts 323°
2026-05-01 09:19 43.80613 6.90433 18129 ft 378 kts 323°
2026-05-01 09:19 43.82652 6.88084 18666 ft 382 kts 323°
2026-05-01 09:19 43.84708 6.85711 19179 ft 384 kts 323°
2026-05-01 09:20 43.88849 6.80941 20076 ft 393 kts 322°
2026-05-01 09:20 43.93171 6.76242 21156 ft 395 kts 330°
2026-05-01 09:21 43.98274 6.73447 22197 ft 396 kts 349°
2026-05-01 09:21 44.00981 6.72606 22708 ft 400 kts 349°
2026-05-01 09:21 44.06413 6.70847 23759 ft 406 kts 348°
2026-05-01 09:22 44.11964 6.69024 24691 ft 411 kts 348°
2026-05-01 09:22 44.17557 6.67190 25557 ft 417 kts 348°
2026-05-01 09:23 44.20387 6.66259 26030 ft 419 kts 348°
2026-05-01 09:23 44.26132 6.64370 26762 ft 427 kts 347°
2026-05-01 09:24 44.31909 6.62465 27662 ft 431 kts 348°
2026-05-01 09:24 44.34844 6.61496 28077 ft 434 kts 347°
2026-05-01 09:24 44.40760 6.59541 28881 ft 439 kts 347°
2026-05-01 09:25 44.46669 6.57359 29583 ft 445 kts 341°
2026-05-01 09:25 44.52237 6.53446 30376 ft 451 kts 327°
2026-05-01 09:26 44.54841 6.50941 30703 ft 453 kts 327°
2026-05-01 09:26 44.60083 6.45972 31450 ft 456 kts 326°
2026-05-01 09:26 44.62689 6.43508 31831 ft 458 kts 326°
2026-05-01 09:27 44.67977 6.38478 32672 ft 458 kts 325°
2026-05-01 09:27 44.70626 6.35950 32959 ft 460 kts 325°
2026-05-01 09:27 44.73248 6.33443 33240 ft 461 kts 325°
2026-05-01 09:28 44.75913 6.30895 33516 ft 462 kts 325°
2026-05-01 09:28 44.78580 6.28341 33722 ft 463 kts 325°
2026-05-01 09:28 44.81242 6.25790 33937 ft 463 kts 325°
2026-05-01 09:29 44.89265 6.18084 33979 ft 464 kts 325°
2026-05-01 09:30 44.97241 6.10394 33981 ft 462 kts 324°
2026-05-01 09:30 45.05148 6.02743 33980 ft 463 kts 324°
2026-05-01 09:31 45.10472 5.97580 34109 ft 465 kts 324°
2026-05-01 09:31 45.15780 5.92420 34291 ft 463 kts 324°
2026-05-01 09:32 45.18438 5.89832 34293 ft 463 kts 324°
2026-05-01 09:32 45.26428 5.82030 34292 ft 469 kts 324°
2026-05-01 09:33 45.31767 5.76808 34289 ft 460 kts 324°
2026-05-01 09:34 45.39700 5.69018 34293 ft 461 kts 323°
2026-05-01 09:34 45.47637 5.61191 34291 ft 471 kts 324°
2026-05-01 09:35 45.55812 5.53283 34291 ft 475 kts 329°
2026-05-01 09:36 45.61815 5.49269 34290 ft 476 kts 335°
2026-05-01 09:36 45.67854 5.45451 34283 ft 476 kts 334°
2026-05-01 09:37 45.73911 5.41601 34275 ft 476 kts 334°
2026-05-01 09:37 45.82961 5.35845 34289 ft 476 kts 334°
2026-05-01 09:38 45.92160 5.29971 34284 ft 488 kts 335°
2026-05-01 09:39 46.01439 5.24031 34276 ft 487 kts 335°
2026-05-01 09:39 46.07631 5.20053 34268 ft 491 kts 336°
2026-05-01 09:40 46.17016 5.14012 34263 ft 487 kts 335°
2026-05-01 09:41 46.23317 5.10528 34257 ft 490 kts 345°
2026-05-01 09:41 46.30083 5.09296 34267 ft 494 kts
2026-05-01 09:41 46.33529 5.09340 34261 ft 495 kts
2026-05-01 09:42 46.40421 5.09359 34260 ft 494 kts
2026-05-01 09:43 46.54189 5.09396 34261 ft 496 kts
2026-05-01 09:43 46.61118 5.09427 34264 ft 496 kts
2026-05-01 09:44 46.71409 5.09469 34262 ft 496 kts
2026-05-01 09:45 46.78328 5.09499 34263 ft 496 kts
2026-05-01 09:45 46.88665 5.09545 34257 ft 495 kts
2026-05-01 09:46 46.95566 5.09576 34263 ft 495 kts
2026-05-01 09:46 47.02430 5.09606 34259 ft 495 kts
2026-05-01 09:47 47.09343 5.09636 34260 ft 495 kts
2026-05-01 09:47 47.16201 5.09667 34263 ft 495 kts
2026-05-01 09:48 47.23107 5.09699 34266 ft 495 kts
2026-05-01 09:48 47.29965 5.09728 34274 ft 494 kts
2026-05-01 09:49 47.36834 5.09760 34268 ft 493 kts
2026-05-01 09:49 47.43714 5.09792 34262 ft 493 kts
2026-05-01 09:50 47.49429 5.09817 34263 ft 492 kts
2026-05-01 09:50 47.56239 5.09530 34264 ft 493 kts 352°
2026-05-01 09:51 47.59611 5.08268 34258 ft 494 kts 340°
2026-05-01 09:51 47.62684 5.06130 34253 ft 495 kts 329°
2026-05-01 09:51 47.65475 5.03119 34257 ft 495 kts 317°
2026-05-01 09:51 47.67968 4.99574 34254 ft 498 kts 314°
2026-05-01 09:52 47.72943 4.92446 34248 ft 498 kts 317°
2026-05-01 09:52 47.78166 4.85612 34241 ft 498 kts 319°
2026-05-01 09:53 47.83388 4.78973 33677 ft 495 kts 319°
2026-05-01 09:53 47.86015 4.75638 33085 ft 495 kts 319°
2026-05-01 09:53 47.88650 4.72284 32165 ft 497 kts 319°
2026-05-01 09:54 47.91291 4.68917 30971 ft 502 kts 319°
2026-05-01 09:54 47.93954 4.65514 29529 ft 505 kts 320°
2026-05-01 09:54 47.96593 4.62141 28187 ft 506 kts 319°
2026-05-01 09:54 47.99252 4.58736 27375 ft 500 kts 319°
2026-05-01 09:55 48.01873 4.55374 26602 ft 493 kts 319°
2026-05-01 09:55 48.04467 4.52041 25820 ft 488 kts 319°
2026-05-01 09:55 48.07030 4.48743 25033 ft 483 kts 319°
2026-05-01 09:55 48.09548 4.45501 24291 ft 478 kts 319°
2026-05-01 09:56 48.12055 4.42266 23485 ft 474 kts 319°
2026-05-01 09:56 48.14540 4.39057 22896 ft 463 kts 319°
2026-05-01 09:56 48.16938 4.35956 22686 ft 445 kts 319°
2026-05-01 09:56 48.19217 4.33005 22420 ft 434 kts 319°
2026-05-01 09:57 48.21510 4.30032 22125 ft 436 kts 319°
2026-05-01 09:57 48.23810 4.27047 21840 ft 435 kts 319°
2026-05-01 09:57 48.26059 4.24009 21567 ft 435 kts 314°
2026-05-01 09:57 48.28053 4.20606 21280 ft 432 kts 308°
2026-05-01 09:58 48.29952 4.17100 20986 ft 429 kts 308°
2026-05-01 09:58 48.31824 4.13683 20695 ft 427 kts 308°
2026-05-01 09:58 48.33715 4.10241 20404 ft 425 kts 308°
2026-05-01 09:58 48.35597 4.06809 20321 ft 424 kts 308°
2026-05-01 09:59 48.37473 4.03386 20170 ft 422 kts 308°
2026-05-01 09:59 48.39337 3.99977 19610 ft 422 kts 308°
2026-05-01 09:59 48.41216 3.96535 18793 ft 425 kts 308°
2026-05-01 09:59 48.43071 3.93132 18299 ft 413 kts 308°
2026-05-01 10:00 48.44836 3.89892 18024 ft 402 kts 308°
2026-05-01 10:00 48.46624 3.86602 17676 ft 407 kts 308°
2026-05-01 10:00 48.48409 3.83309 17300 ft 404 kts 308°
2026-05-01 10:00 48.50183 3.80038 16909 ft 400 kts 308°
2026-05-01 10:01 48.51945 3.76788 16535 ft 398 kts 308°
2026-05-01 10:01 48.53667 3.73589 16393 ft 396 kts 307°
2026-05-01 10:01 48.55219 3.70141 16322 ft 396 kts 301°
2026-05-01 10:01 48.56711 3.66640 16245 ft 396 kts 302°
2026-05-01 10:02 48.58211 3.63148 16244 ft 396 kts 302°
2026-05-01 10:02 48.59717 3.59647 16243 ft 396 kts 302°
2026-05-01 10:02 48.61217 3.56151 16240 ft 394 kts 302°
2026-05-01 10:02 48.62687 3.52724 15889 ft 393 kts 302°
2026-05-01 10:03 48.64186 3.49222 15086 ft 397 kts 302°
2026-05-01 10:03 48.65696 3.45692 14330 ft 397 kts 302°
2026-05-01 10:03 48.67168 3.42245 13929 ft 382 kts 302°
2026-05-01 10:03 48.68596 3.38896 13633 ft 379 kts 302°
2026-05-01 10:04 48.70013 3.35566 13428 ft 379 kts 301°
2026-05-01 10:04 48.71439 3.32215 13289 ft 378 kts 301°
2026-05-01 10:04 48.72863 3.28863 13251 ft 377 kts 301°
2026-05-01 10:04 48.74286 3.25511 13249 ft 377 kts 301°
2026-05-01 10:05 48.75681 3.22215 13250 ft 377 kts 301°
2026-05-01 10:05 48.77100 3.18861 13241 ft 377 kts 301°
2026-05-01 10:05 48.78522 3.15502 13246 ft 378 kts 301°
2026-05-01 10:05 48.79941 3.12146 13237 ft 377 kts 301°
2026-05-01 10:06 48.81359 3.08778 13240 ft 377 kts 301°
2026-05-01 10:06 48.82774 3.05415 13247 ft 378 kts 301°
2026-05-01 10:06 48.84186 3.02101 13237 ft 378 kts 303°
2026-05-01 10:06 48.85868 2.99004 13238 ft 379 kts 312°
2026-05-01 10:07 48.87675 2.96063 13238 ft 379 kts 312°
2026-05-01 10:07 48.89464 2.93118 13241 ft 379 kts 311°
2026-05-01 10:07 48.91224 2.90198 13239 ft 379 kts 311°
2026-05-01 10:07 48.92831 2.87023 13239 ft 378 kts 298°
2026-05-01 10:08 48.93838 2.79373 13239 ft 371 kts 264°
2026-05-01 10:08 48.93551 2.75482 13237 ft 370 kts 259°
2026-05-01 10:08 48.93197 2.71607 13236 ft 370 kts 260°
2026-05-01 10:09 48.92886 2.67774 13241 ft 370 kts 261°
2026-05-01 10:09 48.92619 2.63875 13238 ft 370 kts 262°
2026-05-01 10:09 48.92385 2.59956 13246 ft 370 kts 262°
2026-05-01 10:09 48.92167 2.56048 13242 ft 370 kts 263°
2026-05-01 10:10 48.91957 2.52150 13231 ft 364 kts 263°
2026-05-01 10:10 48.91764 2.48479 13231 ft 340 kts 263°
2026-05-01 10:10 48.91404 2.41770 12953 ft 304 kts 262°
2026-05-01 10:11 48.91223 2.38572 12220 ft 303 kts 262°
2026-05-01 10:11 48.91045 2.35465 11923 ft 284 kts 262°
2026-05-01 10:11 48.90886 2.32584 11633 ft 266 kts 262°
2026-05-01 10:11 48.90730 2.29803 11066 ft 261 kts 262°
2026-05-01 10:12 48.90576 2.27099 10468 ft 258 kts 262°
2026-05-01 10:12 48.90419 2.24393 9870 ft 255 kts 263°
2026-05-01 10:12 48.90111 2.19071 8610 ft 251 kts 262°
2026-05-01 10:13 48.89960 2.16425 7997 ft 249 kts 262°
2026-05-01 10:13 48.89810 2.13811 7436 ft 247 kts 262°
2026-05-01 10:13 48.89681 2.11221 6849 ft 245 kts 267°
2026-05-01 10:14 48.91222 2.06782 5739 ft 248 kts 325°
2026-05-01 10:14 48.92825 2.05880 5287 ft 244 kts 355°
2026-05-01 10:14 48.94480 2.05934 5086 ft 233 kts
2026-05-01 10:14 48.95877 2.06938 5000 ft 221 kts 48°
2026-05-01 10:15 48.96621 2.08972 5002 ft 220 kts 77°
2026-05-01 10:15 48.96885 2.11249 4994 ft 217 kts 88°
2026-05-01 10:15 48.97008 2.13553 4996 ft 217 kts 89°
2026-05-01 10:15 48.97126 2.15810 4997 ft 217 kts 89°
2026-05-01 10:16 48.97253 2.18129 4987 ft 217 kts 89°
2026-05-01 10:16 48.97372 2.20421 4933 ft 218 kts 88°
2026-05-01 10:16 48.97613 2.24919 4396 ft 211 kts 88°
2026-05-01 10:17 48.97733 2.27145 4106 ft 210 kts 88°
2026-05-01 10:17 48.97967 2.31527 3564 ft 204 kts 88°
2026-05-01 10:17 48.98078 2.33623 3278 ft 195 kts 88°
2026-05-01 10:18 48.98285 2.37500 2792 ft 175 kts 88°
2026-05-01 10:18 48.98378 2.39281 2558 ft 162 kts 87°
2026-05-01 10:18 48.98466 2.40931 2351 ft 156 kts 88°
2026-05-01 10:19 48.98547 2.42487 2158 ft 153 kts 87°
2026-05-01 10:19 48.98632 2.44091 1947 ft 150 kts 88°
2026-05-01 10:19 48.98716 2.45703 1762 ft 154 kts 88°
2026-05-01 10:20 48.98901 2.48869 1319 ft 148 kts 89°
2026-05-01 10:20 48.98972 2.50399 1146 ft 145 kts 88°
2026-05-01 10:20 48.99047 2.51891 963 ft 144 kts 89°
2026-05-01 10:20 48.99121 2.53435 811 ft 144 kts 87°
2026-05-01 10:21 48.99200 2.54905 572 ft 136 kts 87°
2026-05-01 10:21 48.99357 2.57803 359 ft 118 kts 85°
2026-05-01 10:21 48.99406 2.58758 358 ft 73 kts 85°
2026-05-01 10:22 48.99562 2.59562 364 ft 23 kts 65°
2026-05-01 10:22 48.99637 2.59686 366 ft 5 kts 16°
2026-05-01 10:23 48.99706 2.59687 360 ft 19 kts 357°
2026-05-01 10:23 48.99940 2.59657 365 ft 0 kts 355°
2026-05-01 10:23 48.99949 2.59656 363 ft 0 kts 355°
2026-05-01 10:25 48.99975 2.59653 361 ft 14 kts 356°
2026-05-01 10:25 49.00206 2.59626 360 ft 12 kts 355°
2026-05-01 10:26 49.00268 2.59619 363 ft 8 kts 354°
2026-05-01 10:26 49.00340 2.59610 360 ft 10 kts 355°
2026-05-01 10:26 49.00465 2.59593 365 ft 24 kts 354°
2026-05-01 10:27 49.00739 2.59560 360 ft 14 kts 356°
2026-05-01 10:27 49.00906 2.59542 360 ft 13 kts 356°
2026-05-01 10:28 49.00974 2.59520 367 ft 10 kts 333°
2026-05-01 10:28 49.00998 2.59303 366 ft 13 kts 266°
2026-05-01 10:28 49.00987 2.59155 360 ft 15 kts 263°
2026-05-01 10:29 49.00946 2.58803 362 ft 19 kts 264°
2026-05-01 10:29 49.00936 2.58603 362 ft 20 kts 266°
2026-05-01 10:30 49.00859 2.58253 365 ft 13 kts 199°
2026-05-01 10:30 49.00716 2.58231 360 ft 10 kts 175°
2026-05-01 10:31 49.00600 2.58265 364 ft 4 kts 143°
2026-05-01 10:31 49.00591 2.58354 366 ft 4 kts 88°
2026-05-01 10:32 49.00592 2.58372 366 ft 0 kts 87°